History for KNYNEWYO639

Roof of a 1 story trailer, New York, NY — Current Conditions
Daily Summary for August 22, 2017
  Current: High: Low: Average:
Temperature: 89.0°F 91.8°F 74.3°F 83.1°F
Dew Point: 72.0°F 74.0°F 70.0°F 72.1°F
Humidity: 57% 92% 52% 77%
Wind Speed: 9.1mph 22.6mph - 7.0mph
Wind Gust: 19.0mph 22.6mph - -
Wind: South - - North
Pressure: 29.85in 30.16in 29.84in -
Precipitation: 0.00in      
Statistics for the rest of the month
    High: Low: Average:
Temperature:   91.8°F 64.9°F 77.1°F
Dew Point:   77.0°F 50.0°F 64.6°F
Humidity:   95.0% 38.0% 69.3%
Wind Speed:   26.3mph from the East - 5.8mph
Wind Gust:   31.0mph from the West - -
Wind:   - - South
Pressure:   30.27in 29.82in -
Precipitation:   0.00in    
KNYNEWYO639 Weather Graph
Tabular Data for August 22, 2017
Time Temp. Heat Index Dew Point Pressure Wind Gust Humidity Rainfall
00:03 77.3°F - 71.0°F 30.16in 9.0mph 80% 0.00in
00:08 77.3°F - 71.0°F 30.16in 8.0mph 80% 0.00in
00:13 77.3°F - 71.0°F 30.15in 11.0mph 80% 0.00in
00:18 77.2°F - 71.0°F 30.16in 8.0mph 80% 0.00in
00:23 77.2°F - 71.0°F 30.16in 9.0mph 80% 0.00in
00:28 77.1°F - 70.0°F 30.15in 7.0mph 80% 0.00in
00:33 77.1°F - 70.0°F 30.15in 7.0mph 80% 0.00in
00:38 77.0°F - 71.0°F 30.15in 8.0mph 81% 0.00in
00:43 77.0°F - 71.0°F 30.15in 8.0mph 81% 0.00in
00:48 76.9°F - 71.0°F 30.14in 7.0mph 81% 0.00in
00:53 76.9°F - 71.0°F 30.14in 8.0mph 81% 0.00in
00:58 76.8°F - 70.0°F 30.15in 7.0mph 81% 0.00in
01:03 76.8°F - 70.0°F 30.14in 9.0mph 81% 0.00in
01:08 76.8°F - 70.0°F 30.14in 8.0mph 81% 0.00in
01:13 76.7°F - 71.0°F 30.14in 7.0mph 82% 0.00in
01:18 76.5°F - 70.0°F 30.14in 10.0mph 82% 0.00in
01:23 76.4°F - 70.0°F 30.14in 7.0mph 82% 0.00in
01:28 76.3°F - 71.0°F 30.14in 8.0mph 83% 0.00in
01:33 76.3°F - 71.0°F 30.14in 7.0mph 83% 0.00in
01:38 76.2°F - 71.0°F 30.14in 10.0mph 83% 0.00in
01:43 76.2°F - 71.0°F 30.14in 7.5mph 83% 0.00in
01:48 76.1°F - 70.0°F 30.13in 7.0mph 83% 0.00in
01:53 76.1°F - 70.0°F 30.13in 6.0mph 83% 0.00in
01:58 76.0°F - 71.0°F 30.13in 8.0mph 84% 0.00in
02:03 75.9°F - 71.0°F 30.13in 10.0mph 84% 0.00in
02:08 75.9°F - 71.0°F 30.13in 10.0mph 84% 0.00in
02:13 75.8°F - 70.0°F 30.13in 9.0mph 84% 0.00in
02:18 75.8°F - 70.0°F 30.12in 10.0mph 84% 0.00in
02:23 75.8°F - 70.0°F 30.12in 9.0mph 84% 0.00in
02:28 75.8°F - 70.0°F 30.12in 10.0mph 84% 0.00in
02:33 75.8°F - 70.0°F 30.12in 9.0mph 84% 0.00in
02:38 75.7°F - 71.0°F 30.12in 7.0mph 85% 0.00in
02:43 75.7°F - 71.0°F 30.12in 6.0mph 85% 0.00in
02:48 75.7°F - 71.0°F 30.12in 6.0mph 85% 0.00in
02:53 75.6°F - 71.0°F 30.12in 11.0mph 85% 0.00in
02:58 75.5°F - 71.0°F 30.12in 11.0mph 85% 0.00in
03:03 75.5°F - 71.0°F 30.12in 8.0mph 86% 0.00in
03:08 75.5°F - 71.0°F 30.12in 10.0mph 86% 0.00in
03:13 75.4°F - 71.0°F 30.11in 7.0mph 86% 0.00in
03:18 75.3°F - 71.0°F 30.11in 9.0mph 86% 0.00in
03:23 75.2°F - 71.0°F 30.11in 8.0mph 86% 0.00in
03:28 75.2°F - 71.0°F 30.11in 7.0mph 87% 0.00in
03:33 75.2°F - 71.0°F 30.10in 7.0mph 87% 0.00in
03:38 75.1°F - 71.0°F 30.11in 7.0mph 87% 0.00in
03:43 75.1°F - 71.0°F 30.10in 6.8mph 88% 0.00in
03:48 75.0°F - 71.0°F 30.10in 8.0mph 88% 0.00in
03:53 75.0°F - 71.0°F 30.10in 10.0mph 88% 0.00in
03:58 74.9°F - 71.0°F 30.10in 9.0mph 88% 0.00in
04:03 74.9°F - 71.0°F 30.10in 8.0mph 88% 0.00in
04:08 74.8°F - 71.0°F 30.10in 9.0mph 89% 0.00in
04:13 74.8°F - 71.0°F 30.10in 8.0mph 89% 0.00in
04:18 74.8°F - 71.0°F 30.10in 7.0mph 89% 0.00in
04:23 74.8°F - 71.0°F 30.10in 6.0mph 89% 0.00in
04:28 74.7°F - 71.0°F 30.10in 7.0mph 90% 0.00in
04:33 74.6°F - 71.0°F 30.10in 6.0mph 90% 0.00in
04:39 74.6°F - 71.0°F 30.10in 7.0mph 90% 0.00in
04:44 74.6°F - 71.0°F 30.09in 5.0mph 90% 0.00in
04:49 74.6°F - 71.0°F 30.09in 5.0mph 90% 0.00in
04:54 74.5°F - 71.0°F 30.09in 6.0mph 90% 0.00in
04:59 74.6°F - 71.0°F 30.09in 6.1mph 90% 0.00in
05:04 74.6°F - 71.0°F 30.09in 10.0mph 90% 0.00in
05:09 74.6°F - 72.0°F 30.09in 8.0mph 91% 0.00in
05:14 74.6°F - 72.0°F 30.09in 8.0mph 91% 0.00in
05:19 74.6°F - 72.0°F 30.09in 9.0mph 91% 0.00in
05:24 74.6°F - 72.0°F 30.09in 6.0mph 91% 0.00in
05:29 74.5°F - 72.0°F 30.09in 7.0mph 91% 0.00in
05:34 74.5°F - 72.0°F 30.09in 7.7mph 91% 0.00in
05:39 74.4°F - 71.0°F 30.09in 7.0mph 91% 0.00in
05:44 74.4°F - 71.0°F 30.09in 6.0mph 91% 0.00in
05:49 74.4°F - 72.0°F 30.09in 9.0mph 92% 0.00in
05:54 74.3°F - 72.0°F 30.09in 8.0mph 92% 0.00in
05:59 74.4°F - 72.0°F 30.09in 7.0mph 92% 0.00in
06:04 74.4°F - 72.0°F 30.09in 7.0mph 92% 0.00in
06:09 74.5°F - 72.0°F 30.09in 7.0mph 92% 0.00in
06:14 74.5°F - 72.0°F 30.09in 8.0mph 92% 0.00in
06:19 74.4°F - 72.0°F 30.09in 7.0mph 92% 0.00in
06:24 74.4°F - 72.0°F 30.09in 5.0mph 92% 0.00in
06:29 74.5°F - 72.0°F 30.09in 11.0mph 92% 0.00in
06:34 74.5°F - 72.0°F 30.10in 10.0mph 92% 0.00in
06:39 74.5°F - 72.0°F 30.10in 9.0mph 92% 0.00in
06:44 74.5°F - 72.0°F 30.09in 7.0mph 92% 0.00in
06:49 74.6°F - 72.0°F 30.09in 7.0mph 92% 0.00in
06:54 74.8°F - 72.0°F 30.09in 11.0mph 92% 0.00in
06:59 74.7°F - 72.0°F 30.09in 10.0mph 92% 0.00in
07:04 74.7°F - 72.0°F 30.09in 12.0mph 92% 0.00in
07:09 74.7°F - 72.0°F 30.09in 11.0mph 92% 0.00in
07:14 74.7°F - 72.0°F 30.09in 10.0mph 91% 0.00in
07:19 74.9°F - 72.0°F 30.09in 8.0mph 91% 0.00in
07:24 75.0°F - 72.0°F 30.09in 9.0mph 91% 0.00in
07:29 75.1°F - 72.0°F 30.09in 10.0mph 91% 0.00in
07:34 75.1°F - 72.0°F 30.09in 10.0mph 91% 0.00in
07:39 75.3°F - 72.0°F 30.09in 8.0mph 90% 0.00in
07:44 75.5°F - 72.0°F 30.09in 9.0mph 90% 0.00in
07:45 75.6°F - 72.0°F 30.09in 9.0mph 90% 0.00in
07:50 75.7°F - 72.0°F 30.09in 9.0mph 90% 0.00in
07:55 75.7°F - 72.0°F 30.08in 22.0mph 90% 0.00in
08:00 75.7°F - 72.0°F 30.09in 21.0mph 90% 0.00in
08:05 75.8°F - 72.0°F 30.09in 16.0mph 90% 0.00in
08:10 75.9°F - 72.0°F 30.09in 12.0mph 90% 0.00in
08:15 76.1°F - 72.0°F 30.09in 9.0mph 90% 0.00in
08:20 76.4°F - 73.0°F 30.09in 13.0mph 89% 0.00in
08:25 76.3°F - 72.0°F 30.08in 9.0mph 89% 0.00in
08:30 76.2°F - 72.0°F 30.08in 13.3mph 89% 0.00in
08:35 76.1°F - 72.0°F 30.08in 13.0mph 89% 0.00in
08:40 75.9°F - 72.0°F 30.08in 10.0mph 90% 0.00in
08:45 75.9°F - 72.0°F 30.08in 9.0mph 90% 0.00in
08:50 76.0°F - 72.0°F 30.08in 7.0mph 90% 0.00in
08:55 76.3°F - 73.0°F 30.08in 12.4mph 90% 0.00in
09:00 76.4°F - 73.0°F 30.07in 18.0mph 90% 0.00in
09:05 76.5°F - 73.0°F 30.08in 11.0mph 89% 0.00in
09:10 76.6°F - 73.0°F 30.07in 10.0mph 89% 0.00in
09:15 76.8°F - 73.0°F 30.08in 9.0mph 89% 0.00in
09:20 77.0°F - 73.0°F 30.07in 10.0mph 88% 0.00in
09:25 77.5°F - 73.0°F 30.07in 11.0mph 88% 0.00in
09:30 78.1°F - 73.0°F 30.07in 16.0mph 86% 0.00in
09:35 78.5°F - 73.0°F 30.06in 12.0mph 85% 0.00in
09:40 78.7°F - 73.0°F 30.07in 14.0mph 84% 0.00in
09:45 79.0°F - 73.0°F 30.06in 12.0mph 83% 0.00in
09:50 79.3°F - 73.0°F 30.06in 10.0mph 82% 0.00in
09:55 79.5°F - 73.0°F 30.06in 10.0mph 81% 0.00in
10:00 79.6°F - 73.0°F 30.06in 12.0mph 81% 0.00in
10:05 79.7°F - 73.0°F 30.06in 11.0mph 81% 0.00in
10:10 79.8°F - 73.0°F 30.06in 15.0mph 81% 0.00in
10:15 79.8°F - 73.0°F 30.06in 12.0mph 81% 0.00in
10:20 79.8°F - 73.0°F 30.06in 11.0mph 81% 0.00in
10:25 79.8°F - 73.0°F 30.05in 13.0mph 81% 0.00in
10:30 79.7°F - 73.0°F 30.05in 12.0mph 81% 0.00in
10:35 79.8°F - 73.0°F 30.05in 14.0mph 80% 0.00in
10:40 80.3°F 84.6°F 73.0°F 30.05in 11.0mph 80% 0.00in
10:45 80.5°F 85.0°F 73.0°F 30.05in 11.0mph 79% 0.00in
10:50 80.6°F 85.2°F 73.0°F 30.05in 11.0mph 79% 0.00in
10:55 80.7°F 85.2°F 73.0°F 30.05in 12.0mph 79% 0.00in
11:00 80.8°F 85.4°F 73.0°F 30.05in 12.0mph 78% 0.00in
11:05 80.9°F 85.7°F 73.0°F 30.05in 13.0mph 78% 0.00in
11:10 81.2°F 86.1°F 73.0°F 30.05in 11.0mph 78% 0.00in
11:15 81.8°F 87.1°F 73.0°F 30.04in 11.0mph 77% 0.00in
11:20 82.2°F 87.8°F 73.0°F 30.05in 14.0mph 76% 0.00in
11:25 82.5°F 88.1°F 73.0°F 30.05in 13.0mph 75% 0.00in
11:30 83.0°F 89.5°F 74.0°F 30.04in 11.0mph 75% 0.00in
11:35 83.4°F 90.1°F 74.0°F 30.04in 13.3mph 74% 0.00in
11:40 83.4°F 90.1°F 74.0°F 30.04in 16.0mph 73% 0.00in
11:45 83.4°F 90.1°F 74.0°F 30.03in 13.0mph 73% 0.00in
11:50 83.5°F 90.3°F 74.0°F 30.03in 19.0mph 73% 0.00in
11:55 83.8°F 90.7°F 74.0°F 30.02in 14.0mph 73% 0.00in
12:00 84.1°F 91.4°F 74.0°F 30.02in 18.0mph 72% 0.00in
12:05 84.3°F 91.5°F 74.0°F 30.02in 14.0mph 72% 0.00in
12:10 84.2°F 91.2°F 74.0°F 30.02in 12.0mph 72% 0.00in
12:15 84.2°F 91.2°F 74.0°F 30.02in 10.7mph 72% 0.00in
12:20 84.3°F 91.5°F 74.0°F 30.01in 11.0mph 72% 0.00in
12:25 84.3°F 91.5°F 74.0°F 30.02in 13.0mph 72% 0.00in
12:30 84.2°F 91.2°F 74.0°F 30.01in 13.0mph 73% 0.00in
12:35 84.1°F 91.4°F 74.0°F 30.01in 11.0mph 73% 0.00in
12:40 84.2°F 91.2°F 74.0°F 30.01in 11.0mph 73% 0.00in
12:45 84.4°F 91.7°F 74.0°F 30.01in 11.0mph 72% 0.00in
12:50 84.6°F 91.8°F 74.0°F 30.00in 13.0mph 72% 0.00in
12:55 84.5°F 91.9°F 74.0°F 30.00in 14.0mph 72% 0.00in
13:00 84.6°F 91.8°F 74.0°F 30.00in 14.0mph 72% 0.00in
13:05 84.9°F 92.5°F 74.0°F 30.00in 12.0mph 71% 0.00in
13:10 85.0°F 92.3°F 74.0°F 29.99in 14.0mph 71% 0.00in
13:15 85.2°F 92.8°F 74.0°F 29.99in 13.5mph 71% 0.00in
13:20 85.3°F 93.0°F 74.0°F 29.99in 15.0mph 71% 0.00in
13:25 85.4°F 93.2°F 74.0°F 29.99in 17.0mph 70% 0.00in
13:30 85.6°F 93.3°F 74.0°F 29.99in 16.0mph 70% 0.00in
13:35 85.9°F 93.6°F 74.0°F 29.98in 14.0mph 69% 0.00in
13:40 86.1°F 94.0°F 74.0°F 29.99in 13.0mph 69% 0.00in
13:45 86.1°F 94.0°F 74.0°F 29.98in 14.0mph 68% 0.00in
13:50 86.4°F 94.3°F 74.0°F 29.98in 19.0mph 68% 0.00in
13:55 86.8°F 95.2°F 74.0°F 29.98in 17.0mph 67% 0.00in
14:00 86.9°F 95.0°F 74.0°F 29.98in 18.0mph 66% 0.00in
14:05 87.1°F 94.5°F 73.0°F 29.97in 15.0mph 65% 0.00in
14:10 87.5°F 95.9°F 74.0°F 29.97in 14.0mph 65% 0.00in
14:15 87.7°F 96.4°F 74.0°F 29.96in 15.0mph 64% 0.00in
14:20 87.7°F 96.4°F 74.0°F 29.95in 18.0mph 64% 0.00in
14:25 88.0°F 96.6°F 74.0°F 29.95in 17.0mph 64% 0.00in
14:28 88.2°F 97.0°F 74.0°F 29.95in 18.0mph 63% 0.00in
14:33 88.5°F 97.2°F 74.0°F 29.95in 15.0mph 63% 0.00in
14:38 88.7°F 97.7°F 74.0°F 29.95in 17.0mph 62% 0.00in
14:43 89.1°F 97.1°F 73.0°F 29.95in 17.0mph 61% 0.00in
14:48 89.4°F 97.2°F 73.0°F 29.94in 18.0mph 60% 0.00in
14:53 89.5°F 97.4°F 73.0°F 29.94in 17.0mph 60% 0.00in
14:58 89.9°F 98.9°F 74.0°F 29.93in 15.0mph 60% 0.00in
15:03 90.0°F 98.0°F 73.0°F 29.93in 18.0mph 59% 0.00in
15:08 90.0°F 98.0°F 73.0°F 29.93in 18.0mph 59% 0.00in
15:13 90.1°F 98.3°F 73.0°F 29.92in 13.0mph 59% 0.00in
15:18 90.0°F 98.0°F 73.0°F 29.92in 20.0mph 59% 0.00in
15:23 90.0°F 98.0°F 73.0°F 29.92in 15.0mph 59% 0.00in
15:28 89.9°F 97.8°F 73.0°F 29.91in 15.0mph 58% 0.00in
15:33 90.1°F 98.3°F 73.0°F 29.91in 15.0mph 58% 0.00in
15:38 90.1°F 98.3°F 73.0°F 29.90in 18.0mph 58% 0.00in
15:43 90.0°F 98.0°F 73.0°F 29.90in 20.0mph 58% 0.00in
15:48 90.1°F 97.2°F 72.0°F 29.90in 19.0mph 57% 0.00in
15:53 90.1°F 97.2°F 72.0°F 29.90in 16.0mph 57% 0.00in
15:58 89.4°F 96.2°F 72.0°F 29.89in 17.0mph 58% 0.00in
16:03 89.2°F 96.3°F 72.0°F 29.89in 16.0mph 58% 0.00in
16:08 89.9°F 96.8°F 72.0°F 29.89in 18.0mph 57% 0.00in
16:13 90.6°F 97.7°F 72.0°F 29.89in 21.0mph 55% 0.00in
16:18 90.5°F 97.5°F 72.0°F 29.89in 21.0mph 55% 0.00in
16:23 90.0°F 97.0°F 72.0°F 29.88in 21.0mph 56% 0.00in
16:28 90.0°F 97.0°F 72.0°F 29.89in 20.0mph 56% 0.00in
16:33 90.2°F 97.4°F 72.0°F 29.88in 20.0mph 55% 0.00in
16:38 90.4°F 97.8°F 72.0°F 29.88in 17.0mph 55% 0.00in
16:43 90.8°F 98.2°F 72.0°F 29.88in 18.0mph 55% 0.00in
16:48 91.5°F 99.1°F 72.0°F 29.87in 18.0mph 53% 0.00in
16:53 91.8°F 98.1°F 71.0°F 29.87in 20.0mph 52% 0.00in
16:58 91.7°F 98.5°F 71.0°F 29.87in 21.0mph 52% 0.00in
17:03 91.7°F 98.5°F 71.0°F 29.87in 14.0mph 52% 0.00in
17:08 91.7°F 98.5°F 71.0°F 29.87in 18.0mph 52% 0.00in
17:13 91.3°F 97.6°F 71.0°F 29.87in 19.0mph 52% 0.00in
17:18 90.8°F 97.1°F 71.0°F 29.86in 22.0mph 52% 0.00in
17:23 90.5°F 97.0°F 71.0°F 29.87in 19.0mph 53% 0.00in
17:28 90.5°F 97.0°F 71.0°F 29.86in 20.0mph 54% 0.00in
17:33 90.4°F 96.8°F 71.0°F 29.86in 15.0mph 54% 0.00in
17:38 90.3°F 96.6°F 71.0°F 29.86in 16.0mph 54% 0.00in
17:44 90.0°F 96.0°F 71.0°F 29.86in 18.0mph 55% 0.00in
17:49 89.7°F 96.9°F 72.0°F 29.86in 19.0mph 56% 0.00in
17:54 89.5°F 95.5°F 71.0°F 29.85in 21.0mph 56% 0.00in
17:59 89.5°F 95.5°F 71.0°F 29.85in 15.0mph 56% 0.00in
18:04 89.7°F 96.9°F 72.0°F 29.85in 21.0mph 56% 0.00in
18:09 89.8°F 97.1°F 72.0°F 29.85in 15.0mph 56% 0.00in
18:14 89.9°F 96.8°F 72.0°F 29.84in 18.0mph 56% 0.00in
18:19 89.6°F 95.7°F 71.0°F 29.84in 18.0mph 56% 0.00in
18:24 89.1°F 96.1°F 72.0°F 29.85in 19.0mph 57% 0.00in
Comma Delimited File
Powered by Weather Underground, Inc.